Tracking 30970 objects as of 3-Jul-2025
HD Live streaming from Space Station
objects crossing your sky now

CZ-2C R/B

Track CZ-2C R/B now!
10-day predictions


NORAD ID: 48862
Int'l Code: 2021-055C
Perigee: 566.1 km
Apogee: 662.6 km
Inclination: 35.1 °
Period: 96.8 minutes
Semi major axis: 6985 km
RCS: Unknown
Launch date: June 18, 2021
Source: People's Republic of China (PRC)
Launch site: Xichang Space Center, China (XSC)

Note: This is a ROCKET BODY
Your satellite tracking list
Your tracking list is empty




NASA's NSSDC Master Catalog

Two Line Element Set (TLE):
1 48862U 21055C   25183.35377990  .00001115  00000-0  12005-3 0  9992
2 48862  35.0709 267.1330 0069097 161.0528 199.2768 14.87042660219091
Source of the keplerian elements: AFSPC